Regional Weather Roundup
Issued by NWS

Home | Current Version | Previous Version | Text Only | Print | Product List | Glossary On
Versions: 1 2 3 4 5 6 7 8 9 10 11 12 13 14 15 16 17 18 19 20 21 22 23 24 25 26 27 28 29 30 31 32 33 34 35 36 37 38 39 40 41 42 43 44 45 46 47 48 49 50
000
ASUS43 KDMX 231206
RWRIA

WEATHER ROUNDUP FOR IOWA
NATIONAL WEATHER SERVICE DES MOINES IA
700 AM CDT MON OCT 23 2017

NOTE: "FAIR" INDICATES FEW OR NO CLOUDS BELOW 12,000 FEET WITH NO
SIGNIFICANT WEATHER AND/OR OBSTRUCTIONS TO VISIBILITY.

* - THESE STATIONS ARE NOT NWS STATIONS...THUS NOT UNDER NWS
QUALITY CONTROL.  THEY ALSO DO NOT REPORT WEATHER SUCH
AS PRECIPITATION OR FOG.

IAZ001>003-012>014-020>022-031>034-043>046-231300-
   NORTHWEST IOWA

CITY           SKY/WX    TMP DP  RH WIND       PRES   REMARKS
CHEROKEE *     PTCLDY    48  36  61 NW5       29.89R
DENISON *      MOCLDY    46  36  66 SW6       29.91R
LE MARS *      MOCLDY    55  39  54 NW16G22   29.91R
ORANGE CITY *  MOCLDY    54  43  66 NW14G20   29.90R
SHELDON *      CLOUDY    52  37  58 NW12G20   29.88R
SIOUX CITY     CLOUDY    52  41  66 NW15      29.91R
6HR MIN TEMP:  42; 6HR MAX TEMP:  52;

SPENCER        MOCLDY    49  36  61 W10       29.87R
6HR MIN TEMP:  42; 6HR MAX TEMP:  49;

STORM LAKE *   PTCLDY    46  34  61 W10       29.88R
$$

IAZ055>058-069>071-079>083-090>094-231300-
   SOUTHWEST IOWA

CITY           SKY/WX    TMP DP  RH WIND       PRES   REMARKS
ATLANTIC *     CLOUDY    45  37  76 SW5       29.89R
AUDUBON *      CLOUDY    46  37  71 SW5       29.89R
CLARINDA *       N/A     41  37  87 CALM      29.91R
COUNCIL BLFS * PTCLDY    48  36  61 W10       29.89R
CRESTON *      PTCLDY    43  37  81 S6        29.88F
HARLAN  *      MOCLDY    45  37  76 CALM      29.93R
LAMONI         CLEAR     44  39  82 S8        29.88F
6HR MIN TEMP:  43; 6HR MAX TEMP:  47;

RED OAK *      CLOUDY    43  37  81 SW7       29.90R
SHENANDOAH *   CLEAR     41  37  87 SW3       29.91R
$$

IAZ047>049-059>061-072>074-084-231300-
   CENTRAL IOWA

CITY           SKY/WX    TMP DP  RH WIND       PRES   REMARKS
AMES           CLOUDY    40  39  97 SE3       29.84F
6HR MIN TEMP:  38; 6HR MAX TEMP:  42;

ANKENY *       CLEAR     45  39  81 CALM      29.86F
BOONE *        CLOUDY    48  37  66 SW7G14    29.83F
CHARITON *     CLEAR     45  39  81 SW8       29.88F
DES MOINES     PTCLDY    45  39  79 S7        29.84F
6HR MIN TEMP:  45; 6HR MAX TEMP:  47;

GRINNELL*      CLEAR     42  38  86 S6        29.88F
KNOXVILLE *    CLEAR     45  37  76 S9        29.86F
MARSHALLTOWN   CLEAR     43  39  86 S6        29.85F
6HR MIN TEMP:  42; 6HR MAX TEMP:  45;

NEWTON *       CLEAR     41  39  93 S6        29.87F
PELLA *        CLEAR     43  38  85 S3        29.89F
PERRY *          N/A     44  40  88 CALM      29.85R
$$

IAZ004>006-015-016-023>025-035-036-231300-
   NORTH CENTRAL IOWA

CITY           SKY/WX    TMP DP  RH WIND       PRES   REMARKS
ALGONA *       MOCLDY    45  37  76 SW9       29.84R
CLARION *      MOCLDY    45  41  87 SW8       29.83S
ESTHERVILLE    CLOUDY    47  36  65 W8        29.84R
6HR MIN TEMP:  38; 6HR MAX TEMP:  47;

FORT DODGE *   MOCLDY    44  37  76 SW8       29.85R
MASON CITY     MOCLDY    45  38  76 S12       29.83F
6HR MIN TEMP:  40; 6HR MAX TEMP:  46;

FOREST CITY *    N/A     43  37  81 SW6       29.82S
WEBSTER CITY * PTCLDY    45  37  76 SW6       29.81F
IOWA FALLS *     N/A     43  39  83 SE5       29.85F
$$

IAZ007>011-017>019-026>030-037>042-050>054-066-231300-
   NORTHEAST IOWA

CITY           SKY/WX    TMP DP  RH WIND       PRES   REMARKS
CEDAR RAPIDS   CLOUDY    41  40  96 SE5       29.90S
6HR MIN TEMP:  40; 6HR MAX TEMP:  43;

CHARLES CITY * CLEAR     45  41  87 S9        29.84F
CLINTON *      CLOUDY    43  43 100 NW5       29.91F
DECORAH *      CLEAR     43  41  93 SE3       29.85F
DUBUQUE        CLOUDY    43  40  89 S5        29.91R
6HR MIN TEMP:  40; 6HR MAX TEMP:  44;

MONTICELLO *   CLOUDY    43  43 100 SE7       29.92R
OELWEIN *      PTCLDY    41  41 100 S8        29.88F
WATERLOO       CLEAR     42  39  89 S7        29.86F
6HR MIN TEMP:  42; 6HR MAX TEMP:  44;

$$

IAZ064-065-067-068-078-231300-
   EAST CENTRAL IOWA

CITY           SKY/WX    TMP DP  RH WIND       PRES   REMARKS
DAVENPORT      CLOUDY    42  42 100 CALM      29.93F
6HR MIN TEMP:  42; 6HR MAX TEMP:  49;

IOWA CITY      CLOUDY    44  42  93 SE7       29.94R
6HR MIN TEMP:  42; 6HR MAX TEMP:  45;

MUSCATINE *    CLOUDY    43  43 100 CALM      29.93F FOG
QUAD CITIES    FOG       46  45  96 CALM      29.90F VSB 1/4
6HR MIN TEMP:  45; 6HR MAX TEMP:  50;

$$

IAZ062-063-075>077-085>089-095>099-231300-
   SOUTHEAST IOWA

CITY           SKY/WX    TMP DP  RH WIND       PRES   REMARKS
BURLINGTON     CLOUDY    46  45  96 CALM      29.92F
6HR MIN TEMP:  45; 6HR MAX TEMP:  50;

FAIRFIELD *    PTCLDY    46  43  87 SE9       29.93R
FORT MADISON * CLOUDY    45  45 100 W5        29.93F
KEOKUK *       CLOUDY    45  45 100 W7        29.92F
OSKALOOSA *      N/A     40  38  95 S7        29.89F
OTTUMWA        CLOUDY    42  40  92 S7        29.89F
6HR MIN TEMP:  42; 6HR MAX TEMP:  47;

WASHINGTON *   CLOUDY    45  45 100 S7        29.94R
$$

ABBREVIATIONS USED IN REMARKS
   TC - TEMPERATURES IN CELSIUS
  WCI - WIND CHILL INDEX
   HX - HEAT INDEX
  VSB - VISIBILITY
$$





USA.gov is the U.S. government's official web portal to all federal, state and local government web resources and services.